This is the latest recevied weather packets stored in our database for station/object M0HPP-13. If no packets are shown the sender has not sent any weather packets the latest 10 day(s).
| Time | Temp. | Humidity | Pressure | Rain* | Wind** | Luminosity | Snow |
|---|---|---|---|---|---|---|---|
| 1788092286 | 13.89° C | 97% | 1004.5 hPa | 0 mm | - | 208 W/m² | - |
| 1788091686 | 13.89° C | 96% | 1004.5 hPa | 0 mm | - | 172 W/m² | - |
| 1788091086 | 14.44° C | 96% | 1004.5 hPa | 0 mm | - | 322 W/m² | - |
| 1788090486 | 13.89° C | 97% | 1004.5 hPa | 0 mm | - | 349 W/m² | - |
| 1788089886 | 13.89° C | 97% | 1004.5 hPa | 0 mm | - | 265 W/m² | - |
| 1788089286 | 13.89° C | 98% | 1004.5 hPa | 0 mm | - | 209 W/m² | - |
| 1788088686 | 13.33° C | 99% | 1004.7 hPa | 0 mm | - | 166 W/m² | - |
| 1788088086 | 13.33° C | 98% | 1004.8 hPa | 0 mm | - | 150 W/m² | - |
| 1788087486 | 13.33° C | 98% | 1004.7 hPa | 0 mm | - | 103 W/m² | - |
| 1788086886 | 13.33° C | 99% | 1004.8 hPa | 0 mm | - | 71 W/m² | - |
| 1788086286 | 13.33° C | 99% | 1004.8 hPa | 0 mm | - | 89 W/m² | - |
| 1788085686 | 13.33° C | 99% | 1004.7 hPa | 0 mm | - | 78 W/m² | - |
| 1788085086 | 13.33° C | 99% | 1004.8 hPa | 0 mm | - | 78 W/m² | - |
| 1788083886 | 13.33° C | 99% | 1004.8 hPa | 0 mm | - | 120 W/m² | - |
| 1788083286 | 13.33° C | 99% | 1004.8 hPa | 0 mm | - | 96 W/m² | - |
| 1788082686 | 13.33° C | 99% | 1004.7 hPa | 0 mm | - | 113 W/m² | - |
| 1788082086 | 12.78° C | 99% | 1004.8 hPa | 0 mm | - | 110 W/m² | - |
| 1788081486 | 12.78° C | 99% | 1004.8 hPa | 0 mm | - | 109 W/m² | - |
| 1788080886 | 12.78° C | 99% | 1004.7 hPa | 0 mm | - | 49 W/m² | - |
| 1788080286 | 12.78° C | 99% | 1004.8 hPa | 0 mm | - | 45 W/m² | - |
| 1788079686 | 12.78° C | 99% | 1004.8 hPa | 0 mm | - | 67 W/m² | - |
| 1788079086 | 12.78° C | 99% | 1004.8 hPa | 0 mm | - | 68 W/m² | - |
| 1788078486 | 12.78° C | 99% | 1004.8 hPa | 0 mm | - | 49 W/m² | - |
| 1788077886 | 12.22° C | 99% | 1004.9 hPa | 0 mm | - | 41 W/m² | - |
| 1788077286 | 12.22° C | 99% | 1004.8 hPa | 0 mm | - | 32 W/m² | - |
* Rain latest hour (hover to see other rain measurements)
** Current wind speed in m/s (hover to see current wind gust speed)